Weather History for Shawano, WI

Change the Weather History Date:

Monday, February 11, 2013

  Actual Average (KGRB) Record (KGRB)
Temperature  
Mean Temperature 34 °F 19 °F  
Max Temperature 41 °F 27 °F 58 °F (1999)
Min Temperature 28 °F 11 °F -29 °F (1899)
Degree Days  
Heating Degree Days 30 46  
Month to date heating degree days 516  
Since 1 July heating degree days 5105  
Cooling Degree Days 0 0  
Month to date cooling degree days 0  
Year to date cooling degree days 0  
Moisture  
Dew Point 29 °F    
Average Humidity 81    
Maximum Humidity 93    
Minimum Humidity 64    
Precipitation  
Precipitation 0.02 in 0.04 in 0.66 in (1887)
Month to date precipitation 0.37  
Year to date precipitation 1.50  
Snow  
Snow 0.00 in 0.40 in 6.80 in (1953)
Month to date snowfall 4.1  
Since 1 July snowfall 34.4  
Snow Depth -    
Sea Level Pressure  
Sea Level Pressure 29.53 in    
Wind  
Wind Speed 8 mph (West)    
Max Wind Speed 17 mph    
Max Gust Speed 29 mph    
Visibility 8 miles    
Events Rain , Snow    
T = Trace of Precipitation, MM = Missing Value Source: NWS Daily Summary

Daily Weather History Graph

Daily Weather History Graph

Search for Another Location

Airport:

Trip Planner

Search our weather history database for the weather conditions in past years. The results will help you decide how hot, cold, wet, or windy it might be!

Date:

Astronomy

Feb. 11, 2013 Rise Set
Actual Time 7:00 AM CST 5:17 PM CST
Civil Twilight 6:29 AM CST 5:47 PM CST
Nautical Twilight 5:55 AM CST 6:22 PM CST
Astronomical Twilight 5:21 AM CST 6:56 PM CST
Moon 7:18 AM CST (2/11) 7:21 PM CST (2/11)
Length of Visible Light 11h 17m
Length of Day
10h 17m
Waxing Crescent, 3% of the Moon is Illuminated
Feb 11
Waxing Crescent
Feb 17
First Quarter
Feb 25
Full
Mar 4
Last Quarter
Mar 11
New

Hourly Weather History & Observations

Time (CST) Temp. Windchill Dew Point Humidity Pressure Visibility Wind Dir Wind Speed Gust Speed Precip Events Conditions
12:15 AM 41.0 °F 39.0 °F 37.4 °F 87% 29.30 in 7.0 mi SSW 3.5 mph - N/A   Overcast
12:35 AM 39.2 °F 37.0 °F 37.4 °F 93% 29.30 in 5.0 mi SSW 3.5 mph - N/A Rain Light Rain
12:55 AM 41.0 °F 38.0 °F 37.4 °F 87% 29.30 in 7.0 mi SW 4.6 mph - N/A   Drizzle
1:15 AM 39.2 °F 34.2 °F 35.6 °F 87% 29.29 in 10.0 mi SW 6.9 mph - N/A   Light Drizzle
1:35 AM 39.2 °F 35.0 °F 35.6 °F 87% 29.29 in 10.0 mi SSW 5.8 mph - N/A   Overcast
1:55 AM 37.4 °F 30.3 °F 35.6 °F 93% 29.29 in 10.0 mi SSW 10.4 mph 16.1 mph N/A   Overcast
2:15 AM 37.4 °F 33.8 °F 33.8 °F 87% 29.29 in 10.0 mi SSW 4.6 mph - N/A   Overcast
2:35 AM 37.4 °F 32.8 °F 33.8 °F 87% 29.29 in 4.0 mi SSW 5.8 mph - N/A   Drizzle
2:55 AM 37.4 °F 32.8 °F 33.8 °F 87% 29.29 in 5.0 mi SSW 5.8 mph - N/A Rain Rain
3:15 AM 35.6 °F 29.9 °F 33.8 °F 93% 29.29 in 5.0 mi SSW 6.9 mph - N/A   Drizzle
3:35 AM 35.6 °F 29.9 °F 33.8 °F 93% 29.28 in 10.0 mi SSW 6.9 mph - N/A   Drizzle
3:55 AM 35.6 °F 32.8 °F 33.8 °F 93% 29.28 in 7.0 mi SSW 3.5 mph - N/A   Drizzle
4:15 AM 35.6 °F 29.9 °F 33.8 °F 93% 29.29 in 7.0 mi SSW 6.9 mph - N/A   Drizzle
4:35 AM 35.6 °F 29.2 °F 32.0 °F 87% 29.29 in 7.0 mi SSW 8.1 mph - N/A   Drizzle
4:55 AM 33.8 °F 27.7 °F 32.0 °F 93% 29.29 in 3.0 mi SSW 6.9 mph - N/A Rain Rain
5:15 AM 33.8 °F 26.4 °F 32.0 °F 93% 29.29 in 4.0 mi SW 9.2 mph - 0.02 in Rain Rain
5:35 AM 33.8 °F 27.7 °F 32.0 °F 93% 29.30 in 5.0 mi SW 6.9 mph - 0.02 in Snow Light Snow
5:55 AM 33.8 °F 29.6 °F 32.0 °F 93% 29.30 in 4.0 mi SSW 4.6 mph - 0.02 in Snow Light Snow
6:15 AM 33.8 °F 29.6 °F 32.0 °F 93% 29.30 in 4.0 mi SW 4.6 mph - N/A Snow Light Snow
6:35 AM 33.8 °F 28.6 °F 32.0 °F 93% 29.31 in 3.0 mi SW 5.8 mph - N/A Snow Light Snow
6:55 AM 33.8 °F 27.7 °F 32.0 °F 93% 29.31 in 4.0 mi SW 6.9 mph - N/A Snow Light Snow
7:15 AM 33.8 °F 29.6 °F 32.0 °F 93% 29.32 in 5.0 mi SW 4.6 mph - N/A Snow Light Snow
7:35 AM 33.8 °F 28.6 °F 32.0 °F 93% 29.32 in 5.0 mi SW 5.8 mph - N/A Snow Light Snow
7:55 AM 33.8 °F 27.0 °F 32.0 °F 93% 29.33 in 5.0 mi SW 8.1 mph - N/A Snow Light Snow
8:15 AM 33.8 °F 27.0 °F 32.0 °F 93% 29.33 in 7.0 mi SW 8.1 mph - N/A   Light Drizzle
8:35 AM 35.6 °F 29.9 °F 32.0 °F 87% 29.34 in 7.0 mi SW 6.9 mph - N/A   Light Drizzle
8:55 AM 35.6 °F 29.2 °F 33.8 °F 93% 29.35 in 7.0 mi WSW 8.1 mph - N/A   Overcast
9:15 AM 35.6 °F 28.0 °F 33.8 °F 93% 29.36 in 10.0 mi West 10.4 mph - N/A   Overcast
9:35 AM 35.6 °F 27.5 °F 33.8 °F 93% 29.37 in 10.0 mi West 11.5 mph 18.4 mph N/A   Overcast
9:55 AM 35.6 °F 27.1 °F 32.0 °F 87% 29.39 in 10.0 mi West 12.7 mph 21.9 mph N/A   Overcast
10:15 AM 35.6 °F 27.5 °F 32.0 °F 87% 29.41 in 10.0 mi West 11.5 mph 20.7 mph N/A   Overcast
10:35 AM 35.6 °F 27.5 °F 32.0 °F 87% 29.43 in 10.0 mi West 11.5 mph 18.4 mph N/A   Overcast
10:55 AM 35.6 °F 27.1 °F 32.0 °F 87% 29.44 in 10.0 mi WNW 12.7 mph 21.9 mph N/A   Overcast
11:15 AM 35.6 °F 26.6 °F 32.0 °F 87% 29.46 in 10.0 mi West 13.8 mph 18.4 mph N/A   Overcast
11:35 AM 35.6 °F 27.1 °F 30.2 °F 81% 29.48 in 10.0 mi West 12.7 mph 21.9 mph N/A   Overcast
11:55 AM 35.6 °F 26.6 °F 30.2 °F 81% 29.49 in 10.0 mi WNW 13.8 mph 26.5 mph N/A   Overcast
12:15 PM 35.6 °F 27.5 °F 28.4 °F 75% 29.50 in 10.0 mi WNW 11.5 mph 25.3 mph N/A   Overcast
12:35 PM 35.6 °F 26.6 °F 30.2 °F 81% 29.51 in 10.0 mi West 13.8 mph 24.2 mph N/A   Overcast
12:55 PM 35.6 °F 27.1 °F 28.4 °F 75% 29.53 in 10.0 mi WNW 12.7 mph 24.2 mph N/A   Overcast
1:15 PM 35.6 °F 26.6 °F 28.4 °F 75% 29.54 in 10.0 mi WNW 13.8 mph 25.3 mph N/A   Overcast
1:35 PM 35.6 °F 26.2 °F 28.4 °F 75% 29.56 in 10.0 mi WNW 15.0 mph 24.2 mph N/A   Overcast
1:55 PM 33.8 °F 24.8 °F 28.4 °F 81% 29.57 in 10.0 mi WNW 12.7 mph 20.7 mph N/A   Overcast
2:15 PM 33.8 °F 23.9 °F 28.4 °F 81% 29.58 in 10.0 mi West 15.0 mph 28.8 mph N/A   Overcast
2:35 PM 33.8 °F 23.2 °F 28.4 °F 81% 29.60 in 10.0 mi West 17.3 mph 21.9 mph N/A   Overcast
2:55 PM 33.8 °F 23.5 °F 26.6 °F 75% 29.62 in 10.0 mi WNW 16.1 mph 27.6 mph N/A   Overcast
3:15 PM 33.8 °F 23.5 °F 28.4 °F 81% 29.64 in 10.0 mi West 16.1 mph 23.0 mph N/A   Overcast
3:35 PM 32.0 °F 20.8 °F 26.6 °F 80% 29.65 in 10.0 mi West 17.3 mph 25.3 mph N/A   Overcast
3:55 PM 32.0 °F 23.0 °F 26.6 °F 80% 29.67 in 10.0 mi West 11.5 mph 20.7 mph N/A   Overcast
4:55 PM 32.0 °F 22.1 °F 24.8 °F 75% 29.71 in 10.0 mi WNW 13.8 mph 20.7 mph N/A   Overcast
5:15 PM 32.0 °F 21.2 °F 24.8 °F 75% 29.72 in 10.0 mi West 16.1 mph 24.2 mph N/A   Overcast
5:35 PM 32.0 °F 23.6 °F 23.0 °F 69% 29.74 in 10.0 mi WNW 10.4 mph 21.9 mph N/A   Overcast
5:55 PM 32.0 °F 23.0 °F 23.0 °F 69% 29.75 in 10.0 mi WNW 11.5 mph 18.4 mph N/A   Overcast
6:15 PM 32.0 °F 24.2 °F 23.0 °F 69% 29.77 in 10.0 mi West 9.2 mph 16.1 mph N/A   Overcast
6:35 PM 32.0 °F 21.2 °F 21.2 °F 64% 29.78 in 10.0 mi WNW 16.1 mph 26.5 mph N/A   Overcast
6:55 PM 30.2 °F 18.9 °F 21.2 °F 69% 29.79 in 10.0 mi WNW 16.1 mph 23.0 mph N/A   Overcast
7:15 PM 30.2 °F 21.3 °F 21.2 °F 69% 29.81 in 10.0 mi WNW 10.4 mph 20.7 mph N/A   Overcast
7:35 PM 30.2 °F 21.3 °F 19.4 °F 64% 29.82 in 10.0 mi WNW 10.4 mph 19.6 mph N/A   Overcast
7:55 PM 30.2 °F 21.9 °F 21.2 °F 69% 29.83 in 10.0 mi West 9.2 mph 18.4 mph N/A   Overcast
8:15 PM 30.2 °F 21.3 °F 21.2 °F 69% 29.84 in 10.0 mi WNW 10.4 mph 17.3 mph N/A   Overcast
8:35 PM 30.2 °F 21.9 °F 21.2 °F 69% 29.84 in 10.0 mi WNW 9.2 mph - N/A   Overcast
8:55 PM 30.2 °F 21.3 °F 21.2 °F 69% 29.85 in 10.0 mi West 10.4 mph 18.4 mph N/A   Overcast
9:15 PM 30.2 °F 19.8 °F 21.2 °F 69% 29.86 in 10.0 mi WNW 13.8 mph 19.6 mph N/A Snow Light Snow
9:35 PM 30.2 °F 21.3 °F 21.2 °F 69% 29.86 in 10.0 mi WNW 10.4 mph - N/A   Overcast
9:55 PM 30.2 °F 21.9 °F 21.2 °F 69% 29.87 in 10.0 mi WNW 9.2 mph - N/A Snow Light Snow
10:15 PM 30.2 °F 21.3 °F 21.2 °F 69% 29.87 in 10.0 mi WNW 10.4 mph 17.3 mph N/A   Overcast
10:35 PM 30.2 °F 22.6 °F 21.2 °F 69% 29.88 in 10.0 mi WNW 8.1 mph - N/A   Overcast
10:55 PM 30.2 °F 21.3 °F 19.4 °F 64% 29.89 in 10.0 mi WNW 10.4 mph 20.7 mph N/A   Overcast
11:15 PM 28.4 °F 19.7 °F 19.4 °F 69% 29.89 in 10.0 mi WNW 9.2 mph 16.1 mph N/A   Overcast
11:35 PM 28.4 °F 22.2 °F 19.4 °F 69% 29.90 in 10.0 mi WNW 5.8 mph - N/A   Overcast
11:55 PM 28.4 °F 19.7 °F 19.4 °F 69% 29.90 in 10.0 mi WNW 9.2 mph 19.6 mph N/A   Overcast